Theta_e
307 311 307 307 306 306 308 308 307 306 306 305 305 306 306 306 306 306 306 306 306 305 305 306 308 312 316 315 314 316 322 325 323 323 322 321 320 319 321 319 319 319 319 319 319 318 318
309 307 307 306 306 308 307 306 305 304 304 305 304 305 305 305 305 305 305 305 305 305 305 305 308 313 315 313 311 310 321 323 324 324 322 320 319 317 318 318 319 317 318 318 318 318 318
309 306 306 306 307 307 306 305 304 304 304 304 304 304 304 304 304 304 304 304 304 305 305 305 308 312 313 313 312 316 318 323 324 324 321 321 319 318 317 320 316 319 319 319 319 319 319
307 306 305 306 306 306 305 305 304 304 304 303 304 304 304 304 304 304 304 304 304 305 305 306 309 311 314 311 313 313 321 322 322 322 322 321 322 320 319 318 318 320 319 321 318 318 318
306 306 306 304 306 306 305 305 304 304 303 303 303 303 303 303 304 304 304 304 304 305 305 306 307 310 313 311 312 312 316 318 321 322 321 321 320 320 318 318 319 318 320 321 320 317 318
306 305 305 304 306 305 305 304 304 303 303 303 303 302 303 303 304 303 304 304 302 304 304 306 307 312 312 312 312 312 313 317 319 321 323 321 321 321 318 319 322 321 321 318 318 317 317
306 304 304 304 305 305 304 303 303 303 303 304 302 302 303 304 304 304 301 301 299 304 305 306 311 310 312 312 312 313 312 316 319 320 326 323 326 326 323 319 317 317 319 319 317 315 314
305 304 304 303 304 304 303 303 303 303 303 303 301 302 303 304 304 304 302 300 301 302 304 305 310 313 312 312 314 314 312 319 321 324 321 323 325 322 322 320 322 321 322 319 315 314 314
304 303 303 304 304 303 303 303 302 302 303 302 301 302 303 304 304 303 301 301 302 302 306 306 309 314 313 312 313 314 314 318 320 321 321 322 322 322 323 324 324 316 317 316 316 312 310
303 303 303 303 303 303 303 301 301 303 302 302 303 303 304 305 304 302 302 302 303 303 307 312 312 315 313 312 313 312 314 316 319 321 319 318 318 321 321 322 315 316 312 314 313 313 315
302 303 302 302 303 302 301 301 302 302 303 304 304 305 305 304 302 303 302 303 303 303 314 310 313 312 313 313 313 313 313 315 318 318 318 318 316 319 320 318 314 315 311 312 311 310 309
302 302 302 303 301 302 302 302 303 304 305 305 305 304 303 303 304 303 302 303 302 306 312 311 314 316 314 313 314 315 315 314 316 317 315 314 311 313 313 312 312 311 310 308 308 308 306
302 302 301 300 302 302 301 302 303 305 305 304 304 304 303 303 303 303 303 303 306 306 309 313 316 314 314 316 316 316 316 316 319 320 320 316 314 311 311 312 311 309 309 306 305 305 309
302 302 301 300 301 300 300 303 302 304 304 303 304 304 304 303 303 303 303 304 309 312 314 314 315 314 316 315 316 316 316 316 313 314 318 317 319 313 311 312 312 311 310 308 307 309 309
302 301 300 299 299 300 301 301 303 304 304 302 303 304 304 304 304 304 306 305 309 310 314 315 314 315 314 314 317 317 315 314 313 311 313 309 312 311 310 310 311 312 308 308 309 307 303
302 301 300 300 300 301 301 300 302 303 305 302 302 303 303 304 304 304 303 311 310 311 312 309 312 313 314 315 316 316 314 312 312 311 309 310 312 312 311 310 310 310 308 308 301 303 308
301 301 300 299 299 299 299 300 302 303 305 302 302 300 302 304 305 302 306 308 312 311 311 311 311 311 311 311 312 313 312 310 311 310 309 310 309 313 312 311 311 310 311 307 306 304 304
302 301 300 299 298 298 299 300 301 303 304 302 299 298 304 305 303 304 309 307 307 311 311 310 308 309 310 309 310 310 311 310 308 308 311 310 309 310 312 310 308 309 310 308 305 304 304
302 301 300 299 299 298 298 299 300 302 303 302 298 300 303 304 310 311 309 309 309 314 313 311 309 308 309 309 310 309 309 309 309 309 310 310 307 303 311 309 308 311 309 308 307 307 301
301 301 300 299 299 298 298 299 299 301 303 303 299 299 301 302 305 309 310 312 313 310 309 308 308 308 309 310 308 311 311 312 309 309 312 310 308 305 307 308 307 307 310 309 307 306 307
300 301 300 299 299 298 298 298 299 300 303 303 298 304 303 304 306 307 309 310 313 313 310 309 309 309 311 313 313 313 312 311 312 313 311 308 307 304 308 308 308 308 310 309 307 310 308
299 301 300 299 299 298 298 297 298 299 302 302 305 305 304 303 303 306 308 311 312 312 312 313 311 312 313 315 313 313 310 310 312 310 310 308 308 307 306 309 309 309 309 309 309 310 310
299 300 300 299 299 298 298 297 297 298 300 302 301 302 305 304 304 306 308 311 311 311 311 312 313 314 315 315 312 309 308 307 308 309 309 309 307 312 311 308 310 313 311 310 310 310 310
299 299 301 298 298 298 298 297 297 297 297 299 300 301 305 305 304 307 308 309 312 312 312 313 312 313 314 311 310 310 309 308 308 308 309 310 312 314 313 307 309 311 311 310 311 312 311
298 298 300 299 298 297 297 297 297 297 296 297 298 300 304 306 304 306 309 311 311 310 312 313 312 310 309 311 313 316 316 315 313 310 312 311 313 314 314 315 311 314 316 316 316 315 313
298 298 299 300 298 297 297 297 297 297 296 295 298 298 299 304 303 304 307 308 308 309 309 312 311 309 309 310 312 315 314 314 318 316 312 312 312 316 317 316 318 314 313 314 313 316 312
298 297 298 300 298 297 297 296 296 296 296 295 296 296 298 303 302 304 306 308 307 306 306 308 312 311 308 309 312 311 308 311 317 316 318 317 317 316 318 319 314 311 310 312 318 314 313
298 298 297 299 299 297 296 297 296 297 296 295 295 295 295 299 298 299 302 307 308 306 309 307 309 308 308 310 310 310 309 310 312 312 316 318 317 318 315 318 314 309 314 317 312 310 311
298 298 297 297 298 298 297 297 296 297 296 297 295 294 293 294 294 297 297 299 302 306 307 306 307 308 307 307 306 307 311 311 309 312 309 315 312 312 312 312 309 308 311 310 308 308 308
Wind_Speed
20 21 23 22 23 23 26 25 25 25 25 26 25 22 21 19 21 19 19 18 16 18 19 21 21 20 10 5 7 6 6 18 27 26 22 8 5 5 6 6 3 3 2 4 4 6 4
20 22 23 24 24 25 24 24 24 26 25 24 25 22 20 20 20 16 17 16 16 19 19 19 19 17 5 10 12 16 4 24 24 23 17 12 7 5 5 3 7 4 7 6 4 5 3
20 24 24 26 26 26 24 25 25 23 24 24 24 21 20 19 18 15 15 16 18 18 17 16 17 13 6 13 5 6 9 25 22 21 8 14 5 4 4 3 5 2 3 1 5 3 5
22 23 25 26 26 26 25 26 25 24 23 23 21 20 18 18 17 16 15 17 17 17 15 15 12 6 5 16 10 2 8 18 19 20 16 18 10 1 2 2 3 5 3 3 3 6 5
23 24 26 27 27 27 26 26 24 24 23 22 22 20 20 19 18 16 16 16 17 18 15 13 10 5 3 3 9 12 9 9 17 15 11 14 8 4 2 5 3 2 4 4 5 6 4
24 26 27 26 29 28 26 26 25 25 23 22 21 21 21 18 16 14 22 18 20 14 7 6 8 5 4 5 8 9 7 11 4 8 8 5 3 4 4 3 8 5 5 2 4 1 4
24 26 27 27 30 28 26 26 25 25 24 21 22 19 18 18 18 21 19 10 4 1 3 5 4 5 1 3 14 8 7 7 3 4 6 6 5 11 11 7 3 5 3 3 3 1 4
24 26 27 28 30 28 27 26 26 25 26 23 22 19 19 19 20 17 12 1 3 1 3 10 7 1 5 8 5 7 15 5 4 3 6 5 9 6 6 6 3 2 0 3 5 1 2
24 27 28 28 29 28 28 27 27 27 27 24 21 20 22 26 21 11 4 4 5 2 1 3 5 2 7 7 4 8 6 4 4 4 3 5 4 9 5 5 4 1 3 3 3 5 2
24 25 27 28 28 29 28 29 29 28 27 24 23 23 26 25 14 9 3 4 7 5 3 4 6 3 1 8 5 4 6 3 3 8 10 4 6 10 7 7 5 4 2 2 3 3 3
23 26 27 28 27 28 30 30 31 30 30 28 26 24 25 8 5 3 1 4 6 0 5 4 6 2 2 2 12 1 3 1 4 5 5 2 5 6 4 4 4 3 3 4 3 3 2
22 24 26 27 27 27 29 30 32 33 34 28 21 17 11 5 6 5 4 8 2 2 5 3 3 8 7 4 4 5 1 2 4 6 7 3 1 4 3 3 3 7 4 6 4 2 2
22 25 27 26 26 28 30 31 33 34 31 20 17 13 14 8 5 8 13 1 2 4 2 4 5 10 10 6 6 3 1 5 3 5 3 5 3 2 5 7 5 4 5 2 4 3 5
21 24 25 25 27 29 30 32 34 33 24 15 17 18 16 17 13 8 0 1 5 4 2 7 13 13 6 5 6 2 4 4 3 6 3 3 2 3 2 4 5 2 5 4 5 1 4
20 22 24 24 25 28 30 32 33 33 21 12 9 8 11 8 4 3 1 4 2 3 2 11 13 9 5 6 3 3 3 3 3 2 5 4 2 1 2 2 4 3 1 2 4 2 3
19 21 23 24 25 27 30 32 33 32 25 15 8 8 5 10 3 0 3 5 4 5 8 5 5 2 3 3 4 2 3 2 4 3 2 5 4 1 1 3 5 3 6 3 3 1 3
17 20 22 24 25 25 28 31 33 31 28 12 5 3 3 17 5 4 3 4 3 6 7 5 3 5 5 4 4 2 6 2 2 3 3 3 4 2 4 3 6 2 1 5 4 3 3
14 16 21 23 24 26 27 29 32 32 23 11 3 3 13 14 4 3 2 3 4 4 2 3 4 5 4 4 3 3 6 3 6 6 4 1 4 3 5 2 3 3 5 5 3 3 2
14 16 18 22 24 26 28 30 31 30 17 5 2 2 5 6 3 3 1 2 2 3 2 3 3 2 3 4 4 2 4 3 7 6 6 4 1 2 2 3 3 3 4 4 4 3 6
13 15 17 20 23 25 27 29 31 31 14 3 2 3 4 4 2 3 4 5 2 2 3 4 4 5 5 2 2 5 3 4 7 6 6 6 3 4 5 4 4 3 5 6 6 3 3
12 14 15 18 21 24 27 29 30 30 13 2 3 2 2 3 3 3 3 3 5 6 5 5 4 5 3 3 3 3 2 2 4 3 3 4 3 2 5 6 3 4 5 7 8 11 5
11 13 14 15 18 21 24 26 30 33 9 7 2 2 3 3 3 5 3 4 4 4 5 4 4 1 2 3 3 5 5 2 2 3 3 0 1 2 4 3 5 5 9 9 9 9 12
12 11 12 14 16 19 21 23 25 29 18 6 4 2 1 4 5 2 2 2 2 1 4 3 2 4 6 3 2 3 3 6 4 6 3 3 4 1 3 4 5 6 11 11 5 5 8
12 11 12 12 14 16 18 19 20 22 23 4 4 0 1 4 2 2 5 3 2 3 3 2 2 2 2 1 2 4 7 6 6 2 4 4 4 2 3 3 1 6 4 7 11 6 12
10 11 13 11 12 14 15 16 17 17 19 11 7 1 1 2 3 6 3 1 0 3 3 1 2 1 1 3 3 2 2 2 3 3 3 4 4 1 1 3 6 4 3 5 5 6 6
11 12 11 10 11 12 13 14 15 15 16 12 9 8 1 1 4 1 4 3 3 1 3 1 1 2 3 2 2 3 4 3 3 2 3 4 5 2 3 2 3 2 1 2 4 4 4
11 11 10 11 10 10 13 12 13 12 12 14 3 9 3 3 3 1 4 3 1 2 2 2 1 1 3 2 2 3 3 4 4 5 5 3 2 6 4 3 6 6 4 4 1 4 2
10 10 9 11 10 10 10 12 11 10 9 9 8 5 4 3 7 4 3 2 3 1 3 3 3 1 2 2 3 3 3 3 2 3 5 6 6 3 4 3 7 5 3 3 4 3 2
9 9 9 10 15 8 9 11 12 9 9 9 3 5 6 3 5 8 18 22 11 4 2 2 2 3 4 3 1 2 2 3 3 3 0 4 6 4 7 5 3 3 4 4 3 3 2
Wind_Direction
339 336 338 335 333 329 327 330 330 330 326 323 319 318 310 307 300 303 299 298 292 291 291 290 296 304 185 192 239 226 300 194 190 188 192 177 155 141 170 173 136 167 211 201 223 263 243
334 340 335 335 333 333 335 333 333 331 326 325 322 318 314 310 311 309 298 295 292 290 290 289 293 296 239 211 245 242 249 168 185 172 168 165 181 172 159 202 173 190 194 253 259 239 235
344 334 337 337 331 335 335 332 332 331 331 330 326 326 319 312 314 312 304 297 293 291 290 286 288 299 205 216 230 233 212 184 177 180 150 177 161 155 153 136 199 156 145 218 234 219 233
338 335 334 335 333 335 333 331 330 334 329 330 328 333 328 322 318 314 304 295 290 287 291 288 293 300 240 240 226 264 182 179 187 193 182 184 188 120 180 145 76 126 89 173 261 177 237
337 337 337 334 333 333 333 333 334 333 333 327 330 328 323 317 311 310 311 301 291 284 283 282 293 254 221 227 216 218 173 153 182 189 179 170 157 183 110 128 82 8 164 190 303 214 221
338 339 337 334 336 335 336 336 335 334 333 326 327 325 322 321 325 320 320 301 294 282 266 242 258 250 187 208 169 184 176 149 141 144 142 114 133 153 126 158 192 162 181 230 209 165 178
340 339 340 335 339 339 339 338 335 334 332 326 330 324 322 319 324 310 329 327 19 72 226 200 216 216 181 223 150 177 153 109 103 126 162 185 179 197 185 178 144 138 152 188 237 263 338
339 343 343 337 340 343 342 340 338 333 332 333 330 323 318 316 321 318 316 190 213 56 298 255 305 92 273 174 134 160 148 154 166 157 133 152 212 165 159 146 176 73 268 276 284 315 321
345 342 343 340 344 346 346 342 338 333 332 335 327 317 313 312 311 308 228 224 251 197 211 177 305 225 178 133 99 152 136 102 138 114 93 124 132 143 151 166 189 160 181 216 230 326 69
346 345 346 344 348 350 349 345 337 336 335 327 318 314 312 310 291 149 234 265 216 206 107 180 192 220 144 138 62 115 155 141 145 136 113 64 135 137 151 192 159 156 223 148 79 51 266
347 346 346 345 354 354 348 342 341 335 328 322 317 317 320 334 107 130 133 123 164 205 132 119 133 177 121 63 133 164 91 167 129 115 116 116 146 148 173 191 138 172 134 108 98 95 34
346 347 349 353 354 352 347 344 341 342 339 341 344 358 13 70 74 92 145 147 31 41 74 110 137 147 89 43 46 95 257 82 65 62 61 103 114 138 161 68 149 138 79 45 52 68 10
345 347 350 354 353 355 352 347 349 350 358 29 42 41 67 83 117 114 131 98 48 65 256 112 134 124 113 110 108 125 153 71 121 125 91 15 10 35 105 77 27 83 74 330 347 16 222
348 350 352 355 358 354 353 351 353 357 7 37 58 60 67 78 117 130 91 33 54 314 45 125 114 94 90 85 101 96 100 96 32 86 91 142 165 183 161 146 171 126 148 160 228 245 289
351 351 355 359 1 357 356 357 356 358 359 357 44 27 45 60 97 193 38 45 350 339 18 118 84 78 49 50 77 100 29 124 140 105 124 122 352 36 74 134 130 186 144 173 107 62 40
351 352 356 359 1 2 357 357 359 357 355 339 349 339 345 357 346 43 66 39 26 161 90 59 83 133 111 117 119 109 174 195 127 139 157 189 94 34 111 88 47 143 152 67 2 105 275
352 354 356 359 3 2 356 358 0 359 353 345 342 15 343 342 321 61 57 26 8 331 18 64 140 100 104 118 121 123 179 11 166 149 39 111 93 283 107 201 172 119 164 56 110 131 160
349 1 355 357 4 5 2 1 1 1 360 2 14 21 338 352 53 39 27 326 317 307 331 63 89 93 113 118 125 109 181 212 182 137 151 149 119 177 199 10 174 157 169 148 123 225 107
345 358 359 358 0 5 4 2 1 2 5 353 10 282 345 0 40 1 356 309 288 306 327 140 94 103 110 127 112 120 184 220 171 148 168 173 16 56 29 23 350 190 191 151 123 104 198
340 352 359 360 358 5 5 5 1 2 8 48 44 13 337 39 339 343 354 347 333 231 30 63 99 102 99 102 82 178 152 3 161 161 181 100 116 152 191 203 140 200 188 188 143 144 200
334 347 355 359 360 3 3 5 3 5 16 60 38 26 12 333 347 331 327 330 9 20 14 44 52 131 126 128 115 120 101 89 71 123 110 115 139 142 248 244 172 204 206 201 195 212 206
326 342 347 358 1 2 3 6 6 6 29 76 56 0 332 287 291 323 346 8 29 343 18 7 115 308 24 100 180 165 128 130 183 71 107 120 135 51 300 305 216 247 240 219 222 234 251
323 333 341 351 1 358 3 5 10 12 20 58 31 22 305 292 333 10 309 330 9 360 28 53 126 99 74 49 13 110 145 155 178 147 127 122 129 101 282 340 320 285 232 193 186 206 211
321 321 336 347 356 356 357 2 7 16 18 16 21 330 357 294 332 310 336 316 5 351 159 352 61 104 181 111 113 52 57 90 118 95 138 129 116 132 286 360 355 248 157 177 197 226 207
318 315 329 343 350 352 348 355 2 7 16 11 8 21 77 262 305 294 321 249 37 16 35 41 357 162 138 85 76 116 58 92 192 182 155 136 121 175 257 263 277 265 168 140 172 278 210
310 312 317 331 344 346 340 344 353 1 7 18 24 8 335 276 238 104 310 282 185 200 354 332 1 342 73 91 106 179 191 177 185 130 110 104 102 173 198 259 260 274 102 125 106 304 241
302 311 311 334 338 340 331 335 338 347 353 2 17 3 304 270 259 163 211 260 163 131 162 293 240 56 37 102 140 180 237 176 174 181 162 157 189 222 238 253 286 246 242 150 138 238 334
300 311 309 322 318 336 327 322 327 333 332 334 331 353 19 288 283 246 253 272 331 92 159 211 67 315 59 150 168 199 170 221 170 201 174 170 175 188 188 234 260 163 113 184 229 294 290
298 312 310 305 329 309 324 318 315 317 320 318 291 321 330 219 259 289 271 259 244 232 334 283 188 174 192 108 212 125 175 162 151 244 181 192 186 184 193 213 240 194 256 249 191 241 286